Regional Weather Roundup
Issued by NWS

Home | Current Version | Previous Version | Graphics & Text | Print | Product List | Glossary On
Versions: 1 2 3 4 5 6 7 8 9 10 11 12 13 14 15 16 17 18 19 20 21 22 23 24 25 26 27 28 29 30 31 32 33 34 35 36 37 38 39 40 41 42 43 44 45 46 47 48 49 50
000
ASUS43 KTOP 262259
RWRKS

WEATHER ROUNDUP FOR KANSAS
NATIONAL WEATHER SERVICE GOODLAND KS
600 PM CDT TUE MAY 26 2015

NOTE:  "FAIR" INDICATES FEW OR NO CLOUDS BELOW 12,000 FEET WITH NO
SIGNIFICANT WEATHER AND/OR OBSTRUCTIONS TO VISIBILITY.

KSZ001>006-013>018-027>032-041>047-270000-
NORTHWEST KANSAS

CITY           SKY/WX    TMP DP  RH WIND       PRES   REMARKS
GOODLAND       PTSUNNY   73  48  41 E5        30.00R
HAYS           MOSUNNY   77  54  44 N10       29.94F
HILL CITY      SUNNY     74  54  49 N8        29.95
RUSSELL        MOSUNNY   76  55  48 N9        29.92S
$$

KSZ061>065-074>080-084>089-270000-
SOUTHWEST KANSAS

CITY           SKY/WX    TMP DP  RH WIND       PRES   REMARKS
DODGE CITY     SUNNY     79  49  34 N6        29.97S
ELKHART          N/A     75  49  39 SE8         N/A
GARDEN CITY    MOSUNNY   75  48  38 SE5       29.96F
GREAT BEND     SUNNY     77  55  47 NW6       29.93F
LIBERAL        SUNNY     77  50  38 CALM      29.99S
$$

KSZ066>073-081>083-090>101-270000-
SOUTHEAST KANSAS

CITY           SKY/WX    TMP DP  RH WIND       PRES   REMARKS
CHANUTE        PTSUNNY   76  65  68 S12       29.93R
COFFEYVILLE    LGT RAIN  71  65  81 S8        29.93F
HUTCHINSON     SUNNY     80  56  43 VRB7      29.93S
NEWTON         SUNNY     79  55  44 NW9       29.95S
PARSONS        LGT RAIN  73  66  78 S8        29.96R
WICHITA INTL   PTSUNNY   80  58  46 NW7       29.91S
WICHITA JABRA  CLOUDY    78  56  46 NW7       29.91F
WINFIELD       MOSUNNY   77  60  55 S9        29.94F
$$

KSZ007>012-019>026-033>040-048>060-102>105-270000-
NORTHEAST KANSAS

CITY           SKY/WX    TMP DP  RH WIND       PRES   REMARKS
CONCORDIA      PTSUNNY   72  53  51 NW17      29.92S
EMPORIA        MOSUNNY   78  56  46 VRB7      29.90F
LAWRENCE       SUNNY     78  57  48 W15       29.88S
MANHATTAN      SUNNY     78  57  48 W12       29.89F
OLATHE IND     MOSUNNY   78  59  51 W14G23    29.89F
OLATHE EXE     MOSUNNY   77  59  53 W15       29.88F
SALINA         MOSUNNY   79  56  45 NW9       29.92S
TOPEKA BILLARD MOSUNNY   77  60  55 W10       29.88S
TOPEKA FORBES  PTSUNNY   79  58  48 W13       29.88F
$$


USA.gov is the U.S. government's official web portal to all federal, state and local government web resources and services.